When you browse on this site, cookies collect data to enhance your experience and personalize the content and advertising you see.
Visit our Privacy Policy to learn more. By continuing to use the site, you agree to this use of cookies and data.
  • In Hungary
  • List of Countries
  • For 7 days
  • Water Temperature
  • Weather Map
  • News
  • Weather Widgets
  • user-avatar
    Login

    Hourly Weather Kadan

    Today, 22 February, Saturday

    Time Temperature Precipitation Wind Pressure Humidity
    00:00 +1°C° 0 mm 4 mps 742 mmHg 84%
    01:00 +1°C° 0 mm 4 mps 742 mmHg 85%
    02:00 +1°C° 0 mm 4 mps 742 mmHg 86%
    03:00 +1°C° 0 mm 4 mps 741 mmHg 87%
    04:00 0°C° 0 mm 4 mps 741 mmHg 88%
    05:00 0°C° 0 mm 4 mps 741 mmHg 85%
    06:00 +1°C° 0 mm 5 mps 740 mmHg 83%
    07:00 +1°C° 0 mm 5 mps 740 mmHg 81%
    08:00 +2°C° 0 mm 6 mps 740 mmHg 73%
    09:00 +3°C° 0 mm 6 mps 740 mmHg 66%
    10:00 +4°C° 0 mm 7 mps 740 mmHg 59%
    11:00 +6°C° 0 mm 7 mps 739 mmHg 56%
    12:00 +7°C° 0 mm 8 mps 739 mmHg 54%
    13:00 +9°C° 0 mm 8 mps 738 mmHg 51%
    14:00 +9°C° 0 mm 8 mps 738 mmHg 51%
    15:00 +9°C° 0 mm 8 mps 737 mmHg 50%
    16:00 +9°C° 0 mm 8 mps 737 mmHg 50%
    17:00 +7°C° 0 mm 8 mps 737 mmHg 54%
    18:00 +6°C° 0 mm 7 mps 737 mmHg 59%
    19:00 +6°C° 0 mm 7 mps 737 mmHg 63%
    20:00 +6°C° 0 mm 7 mps 737 mmHg 67%
    21:00 +6°C° 0 mm 7 mps 737 mmHg 72%
    22:00 +6°C° 0 mm 8 mps 737 mmHg 76%
    23:00 +6°C° 0.3 mm 8 mps 737 mmHg 78%

    Tomorrow, 23 February, Sunday

    Time Temperature Precipitation Wind Pressure Humidity
    00:00 +6°C° 0.3 mm 8 mps 737 mmHg 80%
    01:00 +6°C° 0.3 mm 8 mps 738 mmHg 82%
    02:00 +6°C° 0.3 mm 8 mps 737 mmHg 82%
    03:00 +6°C° 0.3 mm 7 mps 737 mmHg 82%
    04:00 +6°C° 0.3 mm 7 mps 737 mmHg 82%
    05:00 +6°C° 0.1 mm 7 mps 737 mmHg 80%
    06:00 +6°C° 0.1 mm 7 mps 737 mmHg 77%
    07:00 +6°C° 0.1 mm 7 mps 737 mmHg 75%
    08:00 +5°C° 0.4 mm 7 mps 736 mmHg 79%
    09:00 +5°C° 0.4 mm 6 mps 736 mmHg 84%
    10:00 +5°C° 0.4 mm 6 mps 736 mmHg 88%
    11:00 +7°C° 0.7 mm 6 mps 735 mmHg 87%
    12:00 +7°C° 0.7 mm 6 mps 734 mmHg 87%
    13:00 +8°C° 0.7 mm 6 mps 733 mmHg 86%
    14:00 +9°C° 0.4 mm 8 mps 731 mmHg 83%
    15:00 +8°C° 0.4 mm 9 mps 729 mmHg 80%
    16:00 +9°C° 0.4 mm 11 mps 727 mmHg 77%
    17:00 +9°C° 0.7 mm 11 mps 727 mmHg 78%
    18:00 +9°C° 0.7 mm 11 mps 727 mmHg 79%
    19:00 +11°C° 0.7 mm 11 mps 727 mmHg 80%
    20:00 +8°C° 1.7 mm 11 mps 728 mmHg 80%
    21:00 +5°C° 1.7 mm 12 mps 730 mmHg 81%
    22:00 +3°C° 1.7 mm 12 mps 731 mmHg 81%
    23:00 +2°C° 0.1 mm 10 mps 733 mmHg 81%

    Day after tomorrow, 24 February, Monday

    Time Temperature Precipitation Wind Pressure Humidity
    00:00 +1°C° 0.1 mm 9 mps 735 mmHg 81%
    01:00 0°C° 0.1 mm 7 mps 736 mmHg 81%
    02:00 0°C° 0 mm 7 mps 737 mmHg 79%
    03:00 -1°C° 0 mm 6 mps 738 mmHg 77%
    04:00 0°C° 0 mm 5 mps 739 mmHg 75%
    05:00 0°C° 0 mm 5 mps 739 mmHg 77%
    06:00 -1°C° 0 mm 5 mps 740 mmHg 79%
    07:00 -1°C° 0 mm 4 mps 740 mmHg 82%
    08:00 0°C° 0 mm 4 mps 740 mmHg 78%
    09:00 +1°C° 0 mm 4 mps 740 mmHg 75%
    10:00 +3°C° 0 mm 4 mps 740 mmHg 72%
    11:00 +4°C° 0 mm 4 mps 740 mmHg 66%
    12:00 +5°C° 0 mm 4 mps 740 mmHg 61%
    13:00 +6°C° 0 mm 4 mps 739 mmHg 56%
    14:00 +6°C° 0 mm 4 mps 738 mmHg 58%
    15:00 +6°C° 0 mm 4 mps 737 mmHg 60%
    16:00 +5°C° 0 mm 4 mps 736 mmHg 61%
    17:00 +5°C° 0 mm 4 mps 735 mmHg 67%
    18:00 +5°C° 0 mm 4 mps 735 mmHg 74%
    19:00 +5°C° 0 mm 4 mps 734 mmHg 80%
    20:00 +5°C° 0 mm 4 mps 733 mmHg 83%
    21:00 +6°C° 0 mm 4 mps 732 mmHg 86%
    22:00 +6°C° 0 mm 4 mps 732 mmHg 89%
    23:00 +7°C° 0 mm 4 mps 731 mmHg 88%

    25 February, Tuesday

    Time Temperature Precipitation Wind Pressure Humidity
    00:00 +7°C° 0 mm 5 mps 731 mmHg 87%
    01:00 +8°C° 0 mm 5 mps 730 mmHg 85%
    02:00 +7°C° 0 mm 5 mps 729 mmHg 86%
    03:00 +7°C° 0 mm 5 mps 729 mmHg 86%
    04:00 +7°C° 0 mm 5 mps 728 mmHg 86%
    05:00 +7°C° 0.2 mm 5 mps 728 mmHg 86%
    06:00 +7°C° 0.2 mm 5 mps 728 mmHg 87%
    07:00 +7°C° 0.2 mm 5 mps 727 mmHg 87%
    08:00 +7°C° 0.2 mm 5 mps 727 mmHg 84%
    09:00 +8°C° 0.2 mm 6 mps 727 mmHg 81%
    10:00 +8°C° 0.2 mm 6 mps 727 mmHg 78%
    11:00 +7°C° 0.6 mm 6 mps 726 mmHg 81%
    12:00 +6°C° 0.6 mm 7 mps 726 mmHg 83%
    13:00 +6°C° 0.6 mm 7 mps 726 mmHg 86%
    14:00 +5°C° 0.1 mm 7 mps 725 mmHg 81%
    15:00 +5°C° 0.1 mm 8 mps 725 mmHg 76%
    16:00 +5°C° 0.1 mm 9 mps 725 mmHg 70%
    17:00 +4°C° 0 mm 7 mps 725 mmHg 72%
    18:00 +3°C° 0 mm 6 mps 725 mmHg 73%
    19:00 +3°C° 0 mm 4 mps 724 mmHg 75%
    20:00 +3°C° 0 mm 4 mps 724 mmHg 77%
    21:00 +2°C° 0 mm 5 mps 724 mmHg 78%
    22:00 +1°C° 0 mm 5 mps 724 mmHg 80%
    23:00 +1°C° 0 mm 5 mps 723 mmHg 81%

    26 February, Wednesday

    Time Temperature Precipitation Wind Pressure Humidity
    00:00 +1°C° 0 mm 5 mps 723 mmHg 83%
    01:00 +1°C° 0 mm 6 mps 723 mmHg 84%
    02:00 +1°C° 0.1 mm 5 mps 722 mmHg 85%
    03:00 +1°C° 0.1 mm 5 mps 721 mmHg 86%
    04:00 +1°C° 0.1 mm 5 mps 720 mmHg 87%
    05:00 -1°C° 0.2 mm 6 mps 720 mmHg 85%
    06:00 -1°C° 0.2 mm 6 mps 719 mmHg 84%
    07:00 -1°C° 0.2 mm 7 mps 719 mmHg 82%
    08:00 -1°C° 0.1 mm 8 mps 719 mmHg 76%
    09:00 -1°C° 0.1 mm 8 mps 720 mmHg 69%
    10:00 0°C° 0.1 mm 9 mps 720 mmHg 63%
    11:00 0°C° 0 mm 9 mps 720 mmHg 59%
    12:00 +1°C° 0 mm 9 mps 720 mmHg 54%
    13:00 +2°C° 0 mm 9 mps 720 mmHg 50%
    14:00 +1°C° 0 mm 8 mps 720 mmHg 51%
    15:00 +1°C° 0 mm 8 mps 721 mmHg 52%
    16:00 +1°C° 0 mm 8 mps 721 mmHg 53%
    17:00 0°C° 0 mm 7 mps 722 mmHg 61%
    18:00 -1°C° 0 mm 6 mps 722 mmHg 70%
    19:00 -1°C° 0 mm 5 mps 723 mmHg 78%
    20:00 -1°C° 0.2 mm 5 mps 724 mmHg 81%
    21:00 -1°C° 0.2 mm 5 mps 725 mmHg 85%
    22:00 -1°C° 0.2 mm 5 mps 725 mmHg 88%
    23:00 -1°C° 0.1 mm 5 mps 726 mmHg 87%

    27 February, Thursday

    Time Temperature Precipitation Wind Pressure Humidity
    00:00 -1°C° 0.1 mm 5 mps 726 mmHg 86%
    01:00 -2°C° 0.1 mm 6 mps 726 mmHg 84%
    02:00 -2°C° 0.4 mm 6 mps 726 mmHg 86%
    03:00 -2°C° 0.4 mm 6 mps 727 mmHg 87%
    04:00 -2°C° 0.4 mm 7 mps 727 mmHg 88%
    05:00 -2°C° 0.2 mm 7 mps 728 mmHg 87%
    06:00 -2°C° 0.2 mm 7 mps 728 mmHg 86%
    07:00 -2°C° 0.2 mm 7 mps 729 mmHg 85%
    08:00 -2°C° 0.1 mm 7 mps 729 mmHg 82%
    09:00 -1°C° 0.1 mm 7 mps 730 mmHg 79%
    10:00 -1°C° 0.1 mm 8 mps 731 mmHg 76%
    11:00 0°C° 0.1 mm 7 mps 731 mmHg 74%
    12:00 0°C° 0.1 mm 7 mps 731 mmHg 72%
    13:00 +2°C° 0.1 mm 7 mps 732 mmHg 69%
    14:00 +2°C° 0.2 mm 7 mps 732 mmHg 70%
    15:00 +2°C° 0.2 mm 6 mps 732 mmHg 70%
    16:00 +2°C° 0.2 mm 5 mps 732 mmHg 71%
    17:00 +1°C° 0.2 mm 5 mps 732 mmHg 76%
    18:00 0°C° 0.2 mm 4 mps 732 mmHg 82%
    19:00 0°C° 0.2 mm 3 mps 732 mmHg 87%
    20:00 -1°C° 0 mm 3 mps 732 mmHg 87%
    21:00 -1°C° 0 mm 2 mps 732 mmHg 87%
    22:00 -2°C° 0 mm 2 mps 731 mmHg 87%
    23:00 -1°C° 0 mm 2 mps 731 mmHg 86%
    Show more